Hourly Weather Birobidzhan

Today, 22 October, Thursday

Time Temperature Precipitation Wind Pressure Humidity
00:00 +9°C° 0 mm 1 mps 747 mmHg 91%
01:00 +7°C° 0 mm 2 mps 747 mmHg 91%
02:00 +7°C° 0 mm 2 mps 747 mmHg 92%
03:00 +6°C° 0 mm 2 mps 746 mmHg 92%
04:00 +6°C° 0 mm 2 mps 747 mmHg 92%
05:00 +5°C° 0 mm 2 mps 747 mmHg 92%
06:00 +4°C° 0 mm 2 mps 747 mmHg 92%
07:00 +4°C° 0 mm 3 mps 748 mmHg 83%
08:00 +4°C° 0 mm 3 mps 748 mmHg 75%
09:00 +5°C° 0 mm 4 mps 748 mmHg 68%
10:00 +6°C° 0 mm 4 mps 749 mmHg 65%
11:00 +6°C° 0 mm 4 mps 749 mmHg 63%
12:00 +6°C° 0 mm 4 mps 749 mmHg 60%
13:00 +6°C° 0 mm 4 mps 749 mmHg 60%
14:00 +6°C° 0 mm 4 mps 749 mmHg 60%
15:00 +6°C° 0 mm 4 mps 749 mmHg 60%
16:00 +4°C° 0 mm 4 mps 750 mmHg 63%
17:00 +3°C° 0 mm 4 mps 750 mmHg 66%
18:00 +2°C° 0 mm 3 mps 751 mmHg 69%
19:00 +1°C° 0 mm 3 mps 751 mmHg 70%
20:00 +1°C° 0 mm 3 mps 751 mmHg 71%
21:00 +1°C° 0 mm 2 mps 751 mmHg 72%
22:00 +1°C° 0 mm 2 mps 751 mmHg 72%
23:00 +2°C° 0 mm 1 mps 751 mmHg 73%

Tomorrow, 23 October, Friday

Time Temperature Precipitation Wind Pressure Humidity
00:00 +2°C° 0 mm 1 mps 751 mmHg 73%
01:00 +2°C° 0 mm 1 mps 751 mmHg 73%
02:00 +1°C° 0 mm 1 mps 751 mmHg 73%
03:00 +1°C° 0 mm 1 mps 751 mmHg 73%
04:00 +1°C° 0 mm 1 mps 751 mmHg 74%
05:00 +1°C° 0 mm 1 mps 751 mmHg 74%
06:00 +1°C° 0 mm 1 mps 751 mmHg 74%
07:00 +2°C° 0 mm 1 mps 750 mmHg 70%
08:00 +2°C° 0 mm 1 mps 750 mmHg 65%
09:00 +3°C° 0 mm 1 mps 750 mmHg 61%
10:00 +2°C° 0 mm 2 mps 749 mmHg 57%
11:00 +3°C° 0 mm 2 mps 749 mmHg 54%
12:00 +4°C° 0 mm 2 mps 748 mmHg 50%
13:00 +5°C° 0 mm 2 mps 748 mmHg 51%
14:00 +5°C° 0 mm 2 mps 747 mmHg 51%
15:00 +5°C° 0 mm 2 mps 746 mmHg 52%
16:00 +3°C° 0 mm 3 mps 746 mmHg 57%
17:00 +2°C° 0 mm 3 mps 746 mmHg 62%
18:00 0°C° 0 mm 4 mps 745 mmHg 67%
19:00 0°C° 0 mm 4 mps 744 mmHg 68%
20:00 0°C° 0 mm 4 mps 743 mmHg 69%
21:00 0°C° 0 mm 4 mps 742 mmHg 70%
22:00 0°C° 0.1 mm 4 mps 741 mmHg 72%
23:00 0°C° 0.1 mm 5 mps 741 mmHg 74%

Day after tomorrow, 24 October, Saturday

Time Temperature Precipitation Wind Pressure Humidity
00:00 +1°C° 0.1 mm 5 mps 740 mmHg 76%
01:00 +1°C° 0.5 mm 5 mps 739 mmHg 76%
02:00 +1°C° 0.5 mm 5 mps 738 mmHg 76%
03:00 +1°C° 0.5 mm 6 mps 737 mmHg 77%
04:00 +1°C° 1.2 mm 5 mps 737 mmHg 80%
05:00 +1°C° 1.2 mm 5 mps 737 mmHg 84%
06:00 0°C° 1.2 mm 5 mps 736 mmHg 87%
07:00 +1°C° 0.6 mm 5 mps 736 mmHg 85%
08:00 +1°C° 0.6 mm 5 mps 736 mmHg 82%
09:00 +2°C° 0.6 mm 5 mps 736 mmHg 80%
10:00 +2°C° 0.4 mm 5 mps 736 mmHg 80%
11:00 +2°C° 0.4 mm 5 mps 735 mmHg 80%
12:00 +2°C° 0.4 mm 5 mps 735 mmHg 80%
13:00 +3°C° 0.5 mm 5 mps 735 mmHg 79%
14:00 +4°C° 0.5 mm 4 mps 735 mmHg 77%
15:00 +4°C° 0.5 mm 4 mps 735 mmHg 75%
16:00 +4°C° 0 mm 4 mps 735 mmHg 75%
17:00 +4°C° 0 mm 4 mps 736 mmHg 75%
18:00 +3°C° 0 mm 4 mps 736 mmHg 75%
19:00 +3°C° 0 mm 4 mps 736 mmHg 74%
20:00 +3°C° 0 mm 5 mps 737 mmHg 72%
21:00 +3°C° 0 mm 5 mps 737 mmHg 71%
22:00 +3°C° 0 mm 5 mps 738 mmHg 71%
23:00 +3°C° 0 mm 5 mps 739 mmHg 70%

, 25 October, Sunday

Time Temperature Precipitation Wind Pressure Humidity
00:00 +3°C° 0 mm 5 mps 739 mmHg 70%
01:00 +3°C° 0 mm 5 mps 740 mmHg 70%
02:00 +4°C° 0 mm 4 mps 741 mmHg 70%
03:00 +4°C° 0 mm 4 mps 741 mmHg 70%
04:00 +3°C° 0 mm 4 mps 742 mmHg 71%
05:00 +3°C° 0 mm 3 mps 743 mmHg 72%
06:00 +2°C° 0 mm 3 mps 744 mmHg 73%
07:00 +3°C° 0 mm 3 mps 744 mmHg 70%
08:00 +4°C° 0 mm 3 mps 745 mmHg 67%
09:00 +5°C° 0 mm 4 mps 746 mmHg 64%
10:00 +6°C° 0 mm 4 mps 746 mmHg 61%
11:00 +8°C° 0 mm 4 mps 747 mmHg 57%
12:00 +10°C° 0 mm 4 mps 747 mmHg 54%
13:00 +10°C° 0 mm 4 mps 748 mmHg 55%
14:00 +10°C° 0 mm 4 mps 748 mmHg 56%
15:00 +10°C° 0 mm 4 mps 749 mmHg 58%
16:00 +8°C° 0 mm 3 mps 749 mmHg 62%
17:00 +7°C° 0 mm 3 mps 750 mmHg 67%
18:00 +5°C° 0 mm 3 mps 750 mmHg 71%
19:00 +4°C° 0 mm 3 mps 751 mmHg 72%
20:00 +4°C° 0 mm 3 mps 752 mmHg 73%
21:00 +3°C° 0 mm 3 mps 752 mmHg 74%
22:00 +3°C° 0 mm 3 mps 753 mmHg 75%
23:00 +4°C° 0 mm 2 mps 753 mmHg 75%

25 October, Sunday

Time Temperature Precipitation Wind Pressure Humidity
00:00 +3°C° 0 mm 5 mps 739 mmHg 70%
01:00 +3°C° 0 mm 5 mps 740 mmHg 70%
02:00 +4°C° 0 mm 4 mps 741 mmHg 70%
03:00 +4°C° 0 mm 4 mps 741 mmHg 70%
04:00 +3°C° 0 mm 4 mps 742 mmHg 71%
05:00 +3°C° 0 mm 3 mps 743 mmHg 72%
06:00 +2°C° 0 mm 3 mps 744 mmHg 73%
07:00 +3°C° 0 mm 3 mps 744 mmHg 70%
08:00 +4°C° 0 mm 3 mps 745 mmHg 67%
09:00 +5°C° 0 mm 4 mps 746 mmHg 64%
10:00 +6°C° 0 mm 4 mps 746 mmHg 61%
11:00 +8°C° 0 mm 4 mps 747 mmHg 57%
12:00 +10°C° 0 mm 4 mps 747 mmHg 54%
13:00 +10°C° 0 mm 4 mps 748 mmHg 55%
14:00 +10°C° 0 mm 4 mps 748 mmHg 56%
15:00 +10°C° 0 mm 4 mps 749 mmHg 58%
16:00 +8°C° 0 mm 3 mps 749 mmHg 62%
17:00 +7°C° 0 mm 3 mps 750 mmHg 67%
18:00 +5°C° 0 mm 3 mps 750 mmHg 71%
19:00 +4°C° 0 mm 3 mps 751 mmHg 72%
20:00 +4°C° 0 mm 3 mps 752 mmHg 73%
21:00 +3°C° 0 mm 3 mps 752 mmHg 74%
22:00 +3°C° 0 mm 3 mps 753 mmHg 75%
23:00 +4°C° 0 mm 2 mps 753 mmHg 75%

26 October, Monday

Time Temperature Precipitation Wind Pressure Humidity
00:00 +3°C° 0 mm 2 mps 753 mmHg 75%
01:00 +3°C° 0 mm 2 mps 754 mmHg 75%
02:00 +4°C° 0 mm 1 mps 754 mmHg 76%
03:00 +3°C° 0 mm 1 mps 754 mmHg 76%
04:00 +3°C° 0 mm 1 mps 754 mmHg 76%
05:00 +3°C° 0 mm 1 mps 754 mmHg 77%
06:00 +3°C° 0 mm 1 mps 755 mmHg 78%
07:00 +4°C° 0 mm 1 mps 755 mmHg 74%
08:00 +5°C° 0 mm 1 mps 755 mmHg 70%
09:00 +6°C° 0 mm 1 mps 755 mmHg 67%
10:00 +7°C° 0 mm 1 mps 755 mmHg 62%
11:00 +9°C° 0 mm 1 mps 754 mmHg 58%
12:00 +10°C° 0 mm 1 mps 754 mmHg 53%
13:00 +11°C° 0 mm 1 mps 754 mmHg 53%
14:00 +11°C° 0 mm 1 mps 753 mmHg 53%
15:00 +11°C° 0 mm 1 mps 753 mmHg 52%
16:00 +10°C° 0 mm 1 mps 753 mmHg 58%
17:00 +9°C° 0 mm 1 mps 753 mmHg 64%
18:00 +7°C° 0 mm 1 mps 753 mmHg 70%
19:00 +6°C° 0 mm 1 mps 753 mmHg 72%
20:00 +6°C° 0 mm 1 mps 753 mmHg 75%
21:00 +5°C° 0 mm 1 mps 753 mmHg 77%
22:00 +5°C° 0 mm 1 mps 753 mmHg 79%
23:00 +4°C° 0 mm 1 mps 753 mmHg 81%

27 October, Tuesday

Time Temperature Precipitation Wind Pressure Humidity
00:00 +4°C° 0 mm 1 mps 753 mmHg 82%
01:00 +4°C° 0 mm 1 mps 753 mmHg 84%
02:00 +4°C° 0 mm 1 mps 753 mmHg 85%
03:00 +2°C° 0 mm 2 mps 753 mmHg 86%
04:00 +2°C° 0 mm 2 mps 753 mmHg 87%
05:00 +2°C° 0 mm 2 mps 752 mmHg 89%
06:00 +2°C° 0 mm 2 mps 752 mmHg 91%
07:00 +1°C° 0 mm 3 mps 752 mmHg 90%
08:00 +2°C° 0 mm 3 mps 752 mmHg 90%
09:00 +2°C° 0 mm 3 mps 752 mmHg 89%
10:00 +3°C° 0 mm 4 mps 752 mmHg 87%
11:00 +3°C° 0 mm 4 mps 751 mmHg 85%
12:00 +4°C° 0 mm 4 mps 751 mmHg 82%
13:00 +4°C° 0 mm 4 mps 751 mmHg 81%
14:00 +4°C° 0 mm 4 mps 751 mmHg 80%
15:00 +4°C° 0 mm 4 mps 750 mmHg 79%
16:00 +4°C° 0.2 mm 4 mps 750 mmHg 82%
17:00 +4°C° 0.2 mm 4 mps 750 mmHg 85%
18:00 +3°C° 0.2 mm 4 mps 750 mmHg 88%
19:00 +3°C° 0.8 mm 4 mps 750 mmHg 90%
20:00 +3°C° 0.8 mm 3 mps 750 mmHg 92%
21:00 +3°C° 0.8 mm 3 mps 750 mmHg 94%
22:00 +3°C° 0.3 mm 3 mps 750 mmHg 94%
23:00 +4°C° 0.3 mm 2 mps 750 mmHg 94%
Show more